Temp
62 62 62 62 62 62 62 62 62 62 63 62 62 62 62 62 62 72 78 88 87 78 82 92 92 91 92 89 89 87 82 82 82 82 84 90 86 90 92 86 86 88 87 88 89
62 62 62 61 62 62 62 62 62 62 62 62 62 62 62 62 73 79 88 82 80 79 91 88 86 89 86 88 88 84 83 83 89 90 89 89 88 88 86 84 84 85 91 89 89
61 61 61 61 61 61 61 62 62 61 61 62 62 62 62 66 76 89 83 80 79 82 97 95 94 89 86 90 87 87 80 88 90 92 92 91 89 91 87 82 87 83 84 86 87
61 61 61 61 61 61 61 61 61 61 61 61 61 62 62 73 74 93 80 79 79 93 96 92 91 85 85 83 90 81 88 89 92 93 92 90 94 88 88 89 94 91 88 87 86
60 60 60 60 60 60 61 60 60 60 60 61 61 62 68 73 80 95 79 80 88 93 92 89 86 87 83 88 88 83 88 89 92 93 93 93 90 89 89 93 96 92 88 87 87
60 59 59 59 59 60 60 59 59 59 60 61 62 62 70 68 95 96 92 89 91 93 92 93 89 92 88 87 86 90 89 90 92 93 94 90 90 91 92 94 91 89 87 88 88
59 59 59 59 59 59 59 58 59 59 61 62 62 67 68 78 93 95 93 93 95 95 91 95 96 90 90 85 91 90 82 88 91 93 91 93 86 86 94 91 89 88 88 88 89
59 59 59 59 59 59 58 57 58 62 63 62 63 69 71 90 94 89 94 92 96 97 97 98 95 92 89 91 87 84 86 80 91 93 93 91 82 90 94 90 88 88 87 88 88
58 58 58 58 58 57 56 57 61 64 63 63 67 70 75 79 82 91 93 87 91 93 95 96 93 87 88 80 81 84 78 81 85 93 92 89 84 94 94 92 89 88 88 88 88
58 58 58 57 57 56 55 59 63 65 70 72 74 65 77 80 88 90 93 92 86 86 84 84 83 80 82 79 70 77 78 84 82 89 90 86 86 92 94 92 90 89 88 88 88
58 57 57 57 56 55 62 77 73 69 73 73 77 77 79 87 89 87 91 88 87 82 76 81 75 72 79 81 83 84 82 80 86 91 87 86 87 90 94 92 91 90 88 89 89
57 57 57 56 55 55 71 69 61 61 56 73 73 76 83 82 79 84 92 82 79 74 82 77 71 81 84 84 81 81 79 80 86 88 86 86 85 91 94 92 92 92 89 90 91
57 57 56 55 55 65 68 64 71 70 59 71 76 76 77 81 78 81 86 86 79 76 78 75 79 84 81 79 76 77 77 79 80 86 88 85 82 86 92 94 94 96 95 93 92
57 56 55 53 63 68 68 72 72 70 57 71 70 74 79 82 75 89 89 87 81 76 79 78 85 80 79 77 78 73 83 82 81 78 74 86 72 84 90 90 91 94 95 94 94
57 56 54 52 64 65 67 72 71 66 51 74 72 84 81 78 85 81 90 86 79 79 80 74 78 78 76 77 82 77 86 81 80 78 78 79 75 82 89 86 89 93 95 95 96
56 55 53 64 70 71 73 71 67 54 50 68 73 71 71 75 79 82 81 88 87 81 82 81 87 85 82 83 84 84 81 80 79 78 68 77 77 78 84 85 90 94 96 95 97
54 53 57 67 64 73 72 67 54 51 69 62 64 69 71 72 73 75 73 73 72 67 69 76 79 84 85 79 83 81 76 66 64 65 65 81 76 79 89 94 94 95 96 97 97
52 51 61 69 73 71 68 59 45 58 56 63 62 65 64 71 71 74 72 70 76 78 75 68 65 79 84 80 77 76 77 70 58 64 70 80 71 79 92 96 96 98 101 100 98
52 70 71 72 72 70 62 50 53 51 54 54 61 60 65 66 66 70 71 72 76 80 71 71 71 84 84 85 84 76 73 84 76 76 71 79 80 88 92 93 94 96 98 100 99
62 65 68 74 73 67 57 46 52 56 56 57 51 57 55 59 61 66 70 67 73 81 80 77 70 82 83 85 86 83 84 72 76 61 60 73 74 77 83 86 92 94 98 100 101
64 60 68 74 72 63 51 49 52 58 58 52 52 53 56 56 60 62 63 63 68 73 72 76 76 76 81 76 76 77 76 78 80 76 67 66 75 90 87 89 90 95 98 100 101
62 54 69 71 58 58 50 50 49 55 58 55 56 54 54 57 57 59 58 61 66 68 65 75 75 70 74 84 87 84 78 79 70 66 73 74 78 92 92 95 95 96 98 102 103
55 57 70 68 48 48 52 52 53 52 48 48 48 53 55 53 51 57 58 62 65 66 64 71 69 65 69 78 82 78 80 83 82 81 69 68 75 90 90 90 93 95 98 99 100
56 50 61 62 59 48 45 47 47 54 49 51 40 51 50 52 58 53 56 61 64 64 59 64 69 68 67 70 77 72 78 80 80 72 74 74 78 84 87 88 91 93 95 97 97
57 50 51 45 48 48 45 48 44 41 50 53 42 38 38 44 53 52 56 59 62 62 65 66 62 63 70 66 67 74 76 78 76 77 72 78 78 83 88 90 91 93 94 94 94
51 47 51 48 48 44 46 43 44 44 45 46 39 41 42 36 39 43 50 55 56 61 61 64 58 60 60 66 65 64 70 73 77 79 78 79 79 90 92 91 91 92 92 93 95
58 56 46 45 46 43 46 44 45 47 50 50 50 48 46 44 46 53 58 59 59 55 56 57 59 56 56 66 65 59 67 70 73 76 76 71 79 86 85 85 87 88 91 92 94
MSLP
1019.11 1018.65 1018.23 1017.80 1017.32 1016.87 1016.35 1015.81 1015.31 1014.93 1014.55 1014.31 1013.93 1013.56 1013.34 1012.93 1012.14 1011.53 1009.00 1006.92 1007.26 1007.89 1008.08 1007.74 1007.71 1007.71 1007.78 1007.08 1006.97 1006.75 1004.32 1001.68 1001.75 1001.61 1002.22 1003.41 1003.82 1004.82 1005.52 1006.39 1007.23 1007.89 1008.21 1009.77 1011.39
1019.21 1018.70 1018.16 1017.64 1017.10 1016.59 1016.13 1015.69 1015.14 1014.65 1014.28 1013.99 1013.76 1013.36 1012.98 1012.68 1011.03 1008.36 1006.10 1006.28 1006.92 1007.34 1007.06 1006.69 1006.55 1006.89 1006.69 1006.13 1006.21 1005.59 1003.35 1001.81 1002.15 1002.09 1001.86 1002.96 1003.57 1004.63 1005.26 1006.24 1006.99 1007.86 1008.61 1010.32 1011.26
1019.32 1018.73 1018.13 1017.52 1016.92 1016.35 1015.82 1015.31 1014.88 1014.40 1013.98 1013.65 1013.48 1013.22 1012.80 1012.25 1009.43 1004.70 1004.84 1005.51 1006.54 1006.63 1006.03 1006.19 1006.02 1006.19 1005.42 1005.13 1005.04 1004.32 1003.28 1002.36 1002.16 1002.35 1002.16 1002.45 1003.25 1004.28 1004.72 1005.53 1006.26 1007.34 1008.72 1010.13 1011.04
1019.39 1018.81 1018.19 1017.49 1016.76 1016.09 1015.48 1014.88 1014.31 1013.89 1013.56 1013.30 1013.12 1012.92 1012.57 1011.32 1006.94 1004.20 1004.78 1005.20 1006.08 1005.89 1005.52 1005.64 1005.42 1005.32 1004.56 1004.12 1003.98 1003.82 1003.21 1002.69 1002.01 1002.12 1002.15 1002.14 1002.69 1003.67 1004.46 1004.64 1005.70 1007.26 1008.65 1009.65 1010.44
1019.51 1018.89 1018.17 1017.41 1016.58 1015.78 1015.02 1014.29 1013.63 1013.05 1012.82 1012.72 1012.68 1012.68 1012.05 1009.46 1005.56 1004.31 1005.26 1005.61 1005.83 1005.28 1004.77 1004.79 1004.69 1004.32 1003.60 1003.25 1003.43 1003.44 1002.63 1002.62 1002.21 1002.15 1001.97 1002.17 1002.47 1003.02 1003.93 1004.93 1005.63 1007.13 1008.54 1009.44 1010.22
1019.45 1018.80 1018.09 1017.23 1016.32 1015.36 1014.56 1013.80 1012.94 1012.10 1011.77 1011.81 1012.07 1012.35 1010.77 1007.31 1003.97 1004.20 1004.73 1005.11 1004.94 1004.60 1004.32 1004.26 1004.00 1003.99 1003.35 1002.95 1002.93 1002.31 1002.57 1002.18 1001.91 1001.60 1001.64 1001.85 1002.06 1002.86 1003.39 1004.71 1005.70 1006.96 1008.06 1008.91 1009.69
1019.34 1018.60 1017.84 1016.93 1015.88 1014.94 1014.00 1013.17 1012.19 1011.18 1010.67 1010.67 1011.33 1011.35 1009.31 1005.04 1004.16 1004.15 1004.43 1004.11 1004.24 1003.99 1003.60 1003.73 1003.77 1003.79 1003.20 1002.89 1002.99 1002.46 1002.39 1001.87 1001.41 1001.21 1001.14 1001.61 1001.58 1002.18 1002.78 1004.56 1005.38 1006.54 1007.58 1008.41 1009.08
1019.21 1018.35 1017.46 1016.53 1015.43 1014.31 1013.41 1012.48 1011.44 1010.49 1009.91 1010.25 1010.92 1010.53 1006.63 1003.94 1004.24 1004.20 1003.97 1003.89 1003.96 1003.91 1003.56 1003.82 1004.25 1003.62 1003.25 1002.64 1002.47 1002.03 1001.67 1000.59 1000.04 1000.34 1000.68 1001.27 999.82 1001.34 1002.65 1003.77 1004.55 1005.69 1006.86 1007.76 1008.48
1019.18 1018.36 1017.30 1016.30 1015.19 1013.93 1012.92 1011.99 1011.20 1010.51 1010.25 1010.40 1010.28 1008.95 1004.74 1004.52 1003.87 1003.50 1003.44 1003.24 1003.58 1003.95 1004.10 1004.11 1004.24 1003.78 1003.35 1002.89 1001.64 1000.86 999.75 999.50 999.17 999.90 999.87 1000.60 999.78 1000.00 1001.93 1002.75 1003.67 1004.91 1005.89 1006.95 1008.01
1019.10 1018.24 1017.23 1016.18 1015.03 1013.75 1012.57 1011.61 1011.12 1010.68 1010.30 1009.74 1009.15 1008.41 1004.26 1002.27 1002.11 1002.54 1003.02 1002.88 1003.34 1003.75 1004.40 1004.26 1004.29 1003.33 1002.49 1001.79 999.79 999.49 999.58 998.58 998.68 999.14 999.70 999.81 999.62 999.95 1000.85 1001.94 1002.70 1004.08 1005.20 1006.13 1006.93
1019.06 1018.00 1017.10 1016.07 1015.01 1013.78 1012.21 1010.08 1010.57 1009.58 1008.49 1006.48 1004.99 1003.72 1002.70 1002.02 1002.32 1002.08 1002.49 1002.65 1002.92 1003.31 1002.45 1003.13 1002.68 1000.78 1000.63 1000.94 1000.58 999.59 999.18 998.84 998.72 998.81 999.26 999.08 999.13 999.33 999.96 1001.09 1001.77 1002.97 1004.36 1005.03 1005.76
1019.12 1018.02 1016.95 1016.00 1015.01 1013.84 1011.93 1011.14 1013.12 1013.58 1009.17 1005.70 1004.32 1003.51 1002.54 1002.72 1001.31 1001.48 1001.88 1001.30 1001.47 1001.12 1001.42 1002.00 1000.17 1000.57 1000.91 1000.76 1000.58 999.99 999.49 998.78 998.56 998.82 999.37 998.77 998.59 998.80 998.95 999.89 1000.74 1001.59 1002.95 1003.86 1004.92
1019.05 1017.98 1016.89 1015.71 1014.62 1013.59 1012.84 1013.34 1013.61 1013.06 1009.80 1003.44 1002.34 1001.48 1001.47 1001.99 1000.53 1000.06 1000.62 1000.02 999.93 999.96 999.70 999.08 999.08 1000.19 1000.30 1000.33 1000.36 1000.05 999.40 999.04 998.73 998.71 999.04 998.75 998.19 998.17 998.51 999.15 999.77 1000.37 1001.56 1002.85 1003.68
1018.92 1017.98 1017.13 1015.80 1014.41 1013.89 1012.92 1013.25 1013.39 1013.00 1008.88 1001.81 1000.93 999.97 1000.12 1000.12 999.70 999.00 999.78 999.35 999.28 998.82 999.14 998.89 998.74 999.09 999.36 999.42 999.99 999.18 999.69 999.62 999.24 999.30 998.01 998.19 996.89 996.57 997.05 997.73 998.80 999.47 1000.17 1001.19 1002.21
1018.65 1017.90 1017.08 1016.59 1015.23 1013.88 1014.05 1013.48 1013.31 1012.54 1006.27 999.98 999.75 999.72 999.26 998.54 996.78 997.99 998.87 998.90 997.72 997.69 998.25 997.35 997.77 998.08 998.27 998.56 999.34 998.89 999.20 999.58 999.61 999.09 998.70 997.50 997.10 995.77 995.79 996.51 997.23 998.14 998.86 999.92 1000.79
1018.40 1017.74 1017.06 1015.41 1014.38 1013.86 1013.68 1013.22 1012.62 1009.88 1002.91 999.41 999.41 999.12 998.96 998.53 997.39 997.37 998.07 998.55 998.27 997.59 997.33 997.08 997.35 997.42 997.28 998.39 998.82 999.37 999.41 999.54 999.66 999.02 997.23 996.72 996.28 994.66 994.64 995.55 996.10 996.83 997.66 998.75 999.67
1018.06 1017.28 1016.69 1015.69 1014.32 1013.89 1013.24 1011.99 1010.00 1005.71 1001.42 1000.93 1000.12 999.53 998.36 997.52 997.49 997.27 997.19 997.11 996.14 996.21 995.58 996.66 996.16 996.86 997.10 997.51 998.15 998.75 998.61 998.03 997.80 996.76 995.02 995.93 995.28 994.07 994.01 994.35 995.05 995.40 996.27 997.43 998.56
1017.82 1016.84 1015.88 1015.22 1014.52 1013.78 1012.60 1010.62 1007.93 1004.66 1004.24 1003.64 1002.62 1000.99 999.20 997.65 997.27 996.75 996.61 996.15 996.17 995.22 994.39 995.05 994.93 995.06 995.27 995.81 996.25 997.14 996.93 995.26 994.62 994.13 994.65 995.00 993.01 992.68 993.89 994.42 994.42 994.92 994.81 996.24 997.51
1017.49 1015.37 1014.54 1014.42 1014.22 1013.62 1011.71 1009.24 1007.18 1007.43 1007.59 1005.98 1003.39 1000.96 998.99 998.99 998.27 997.21 996.20 995.64 995.41 994.72 993.89 993.40 993.02 993.63 994.45 995.27 995.44 995.86 995.43 995.12 994.08 994.23 993.69 992.50 992.87 993.21 993.17 993.19 993.73 994.02 994.23 994.60 996.03
1017.15 1015.31 1014.31 1014.11 1013.76 1012.88 1010.83 1009.54 1009.12 1009.55 1009.10 1007.62 1005.26 1003.44 1001.29 1000.19 999.26 997.60 996.36 997.16 995.29 995.37 995.26 993.67 992.94 992.97 994.21 995.02 994.60 994.09 995.40 995.11 994.29 993.60 992.89 992.00 991.71 991.41 991.63 992.40 992.63 992.88 993.09 993.71 994.70
1016.66 1014.67 1014.46 1014.08 1013.15 1011.52 1010.70 1010.91 1011.05 1010.87 1010.22 1009.03 1006.89 1005.55 1003.86 1002.42 1000.76 998.86 998.11 999.13 998.07 996.62 997.12 995.73 993.63 992.52 993.32 992.58 992.43 993.56 993.49 993.98 993.89 993.25 991.97 991.44 990.44 990.40 991.01 991.48 991.87 991.99 992.50 992.97 993.74
1016.72 1014.52 1014.85 1014.15 1012.32 1012.40 1012.11 1012.62 1012.41 1011.13 1010.84 1009.93 1008.74 1007.56 1005.88 1004.12 1002.33 1000.68 1000.13 1000.42 1000.76 999.31 997.91 996.77 994.89 992.68 991.91 992.51 992.73 992.72 992.87 993.13 992.57 992.74 992.74 991.66 990.30 990.75 990.90 990.99 991.50 991.66 992.06 992.53 993.18
1017.02 1015.89 1015.25 1014.38 1013.27 1013.32 1013.25 1012.86 1012.47 1012.01 1012.23 1011.76 1010.53 1009.09 1007.96 1005.97 1004.17 1002.77 1002.24 1002.70 1001.87 1000.35 999.32 998.16 995.75 993.62 992.69 992.77 992.70 991.78 992.26 992.48 992.87 992.24 991.65 991.66 990.97 991.49 991.72 991.69 991.72 991.78 991.97 992.51 993.07
1017.74 1015.76 1014.72 1014.98 1015.10 1014.83 1014.31 1013.42 1012.86 1012.71 1012.73 1012.47 1013.02 1011.27 1009.54 1007.13 1005.53 1004.34 1003.39 1003.21 1002.87 1002.04 1001.53 1000.08 996.60 994.09 991.95 992.06 992.24 992.25 991.73 992.24 992.10 991.54 991.04 991.00 991.13 991.41 991.58 991.70 992.18 992.53 992.87 993.17 993.66
1018.27 1017.07 1017.43 1015.92 1015.74 1015.84 1015.57 1014.26 1013.44 1013.47 1013.43 1012.73 1013.17 1013.34 1012.30 1009.52 1006.78 1005.67 1004.93 1004.10 1003.23 1002.88 1001.47 1000.10 997.48 996.88 994.96 995.14 994.26 992.35 991.96 991.85 991.27 991.54 990.96 990.95 991.10 991.52 991.68 992.02 992.39 992.80 992.98 993.35 993.74
1018.59 1018.34 1018.03 1017.47 1016.91 1016.42 1015.18 1014.61 1013.86 1013.96 1013.73 1012.86 1013.32 1013.26 1012.60 1011.71 1010.61 1008.40 1007.09 1005.44 1003.92 1003.47 1002.40 1001.34 999.18 998.57 996.91 996.29 995.71 994.56 993.61 992.74 991.97 991.65 991.75 991.60 991.19 991.72 992.28 992.66 992.64 992.88 993.20 993.11 993.23
1019.14 1019.06 1019.06 1017.77 1016.83 1016.34 1015.02 1014.97 1014.41 1014.17 1013.45 1013.22 1012.71 1012.18 1011.44 1011.64 1011.36 1009.77 1008.27 1007.07 1006.00 1005.15 1003.75 1002.71 1000.65 999.67 997.34 996.57 996.09 994.64 993.63 993.51 993.23 992.89 992.76 991.89 992.66 993.05 992.90 993.31 993.31 993.12 992.97 992.78 992.89
Wind_Speed
21 21 21 21 21 21 21 21 21 20 19 18 17 17 16 15 18 11 16 10 11 15 12 19 18 16 17 12 7 3 8 4 6 4 10 12 8 6 7 13 7 8 7 23 26
22 22 22 23 22 22 22 21 21 22 21 18 16 16 16 14 14 19 13 11 13 20 19 22 22 20 16 15 8 10 10 5 5 4 3 13 8 10 8 14 13 9 17 25 26
23 23 24 24 24 24 24 23 22 22 21 19 16 14 14 16 10 9 7 17 18 24 21 20 18 19 17 12 12 10 11 3 6 8 2 12 10 9 8 13 17 16 22 27 26
23 24 25 26 27 26 26 25 24 23 20 17 15 12 11 8 7 6 3 18 20 24 19 20 20 23 17 15 15 10 10 7 3 3 1 7 10 11 10 4 14 17 23 27 27
23 24 24 25 27 27 26 26 25 25 21 17 12 8 9 10 12 6 13 14 21 24 23 22 22 23 19 17 10 16 8 6 8 7 4 6 10 9 13 8 14 19 23 26 24
24 23 23 24 26 27 27 26 26 26 22 16 10 6 7 14 3 7 10 19 23 22 23 22 21 20 12 10 16 9 14 8 9 9 7 8 9 12 11 12 15 20 24 25 25
24 24 25 26 27 28 29 27 27 24 19 9 13 10 10 18 1 7 14 19 21 22 24 23 16 21 9 12 11 14 10 11 11 12 6 8 10 13 11 16 18 20 21 23 24
25 26 27 27 29 31 30 27 24 18 3 10 16 10 10 5 12 7 15 16 17 19 18 19 6 20 10 1 7 16 17 15 15 16 12 13 11 17 16 20 20 22 21 22 24
24 25 27 29 30 32 31 24 12 9 10 17 11 9 8 7 12 17 15 16 17 17 13 12 13 16 20 13 14 15 15 19 14 11 10 16 11 14 19 19 19 20 22 21 22
25 25 27 28 30 31 29 15 5 11 8 4 1 7 8 5 8 21 15 13 21 18 14 17 15 16 17 18 19 18 19 16 19 14 13 16 16 7 19 19 19 19 20 21 23
26 27 28 28 29 31 18 6 6 9 8 11 1 8 2 2 9 17 20 22 16 22 18 24 20 26 26 24 20 16 16 20 16 10 13 16 15 13 13 18 18 19 20 22 23
25 26 28 29 30 23 14 6 8 6 17 17 24 24 18 2 10 18 25 19 22 25 22 19 28 23 21 20 20 22 17 20 13 7 12 15 15 14 12 17 18 19 22 23 22
25 26 29 29 27 10 8 9 8 12 10 13 14 16 14 21 12 22 31 26 26 29 30 24 14 24 23 21 23 23 23 18 16 14 15 14 16 15 14 14 15 19 20 21 22
23 25 26 31 11 11 4 13 12 7 9 9 9 7 14 15 15 18 29 29 18 29 28 24 17 25 24 26 24 25 23 19 18 12 13 16 17 21 22 17 18 18 20 22 24
25 25 24 15 9 8 14 15 12 6 9 10 8 9 8 21 8 24 26 30 23 22 29 20 26 23 28 25 25 20 16 18 20 17 17 22 11 15 13 17 19 19 21 23 24
24 25 25 3 5 9 16 14 5 9 11 6 6 8 10 18 9 11 23 27 21 24 26 27 16 25 23 18 23 13 16 13 15 16 21 23 21 19 17 18 18 19 19 22 23
26 24 15 7 10 15 14 7 9 12 5 5 7 2 8 13 20 14 26 33 23 25 29 26 25 18 15 24 20 22 20 11 13 18 19 22 23 18 8 19 20 18 20 22 23
26 26 2 4 12 13 9 9 14 3 11 19 14 19 15 10 13 21 20 27 33 26 17 22 23 30 24 25 21 28 24 11 17 15 17 17 22 23 23 20 6 19 17 19 21
27 6 3 10 13 8 8 10 8 14 15 15 19 10 11 7 7 13 22 23 31 29 24 22 24 28 20 22 24 26 28 26 12 5 9 14 19 16 13 21 24 23 19 18 21
10 6 5 15 10 10 8 6 11 10 15 15 17 7 10 6 9 8 16 6 17 34 3 15 19 18 24 26 26 20 24 22 16 16 19 13 19 13 22 22 21 23 22 20 21
6 7 9 16 8 8 5 9 13 16 13 10 15 15 13 13 9 6 2 9 8 5 5 14 15 22 24 28 28 23 19 25 17 17 12 11 12 15 18 17 23 22 22 20 20
7 7 10 11 4 4 7 12 10 14 14 17 11 15 16 12 11 4 4 9 9 7 14 14 11 12 25 19 25 28 24 29 14 22 18 15 7 7 6 16 18 19 20 19 19
8 5 4 11 6 7 9 11 10 10 10 11 11 14 13 15 6 4 1 4 11 9 2 3 14 15 15 21 24 28 28 25 24 16 21 17 5 8 7 1 3 9 12 14 14
6 6 3 3 3 11 13 11 12 10 2 11 6 16 16 16 10 3 2 4 8 9 9 7 12 22 17 15 18 28 30 28 28 21 17 18 15 11 5 7 10 7 6 8 9
2 4 4 7 8 12 12 14 10 6 10 13 4 7 8 9 14 14 5 11 2 8 5 8 14 7 13 1 5 13 27 30 30 26 26 18 21 18 11 6 4 5 4 1 4
5 4 2 10 9 11 8 10 11 12 11 9 6 15 10 4 10 9 10 7 5 6 7 7 4 6 15 10 7 10 12 15 25 28 26 25 22 10 11 11 17 18 15 14 14
1 3 3 7 8 9 7 9 15 13 7 6 14 16 14 9 12 16 15 14 15 11 8 7 6 7 15 12 10 16 22 20 18 18 17 23 16 15 18 13 13 12 13 14 15
Wind_Direction
353 350 348 344 341 339 336 333 330 327 325 324 324 324 324 321 302 213 240 245 184 168 187 170 177 182 183 203 219 261 256 187 103 208 114 146 132 123 94 136 158 156 148 143 152
350 348 345 342 339 336 334 330 325 322 320 318 319 319 320 321 290 262 234 193 170 167 182 180 182 182 191 204 198 230 276 63 52 33 158 163 156 143 153 154 146 134 114 145 157
349 346 343 339 336 334 330 325 320 317 314 310 310 312 313 307 274 248 76 179 176 177 191 197 186 187 211 206 200 206 252 124 113 47 313 161 173 161 156 173 167 154 148 157 164
347 344 340 337 334 331 326 322 317 313 307 302 300 302 306 275 260 60 49 168 177 190 183 194 189 197 206 204 202 239 238 261 130 6 311 190 157 178 175 85 159 151 159 163 172
346 342 338 334 330 326 323 319 315 308 302 293 283 280 263 226 247 104 121 149 173 191 184 186 193 201 210 207 194 222 226 247 250 253 299 199 190 197 187 130 152 152 166 173 180
345 341 339 334 328 323 322 319 313 306 299 276 246 217 233 248 307 210 173 160 173 186 189 190 198 207 240 220 212 192 225 237 244 232 246 220 194 195 189 147 153 164 174 177 186
344 341 338 332 327 325 324 320 314 305 295 244 196 215 235 241 237 204 193 187 182 193 190 197 200 202 221 213 218 220 222 223 228 226 221 216 210 204 161 168 164 174 178 183 186
343 340 336 332 330 326 327 321 314 307 30 163 171 199 253 180 243 222 193 198 195 206 207 198 188 215 231 292 218 218 226 236 223 207 201 207 214 186 167 180 178 175 180 185 188
341 339 333 331 330 327 327 325 313 56 99 136 161 226 248 116 204 201 188 189 185 196 214 189 209 224 222 234 222 204 222 217 188 205 189 203 238 156 173 191 186 183 180 186 188
340 337 332 331 330 328 324 306 175 151 159 229 54 219 225 223 168 187 188 175 178 163 176 192 202 209 218 212 217 205 217 231 210 187 203 203 237 158 176 198 194 188 185 187 192
341 335 333 331 331 328 323 231 243 188 231 260 247 277 191 27 144 188 176 165 166 178 184 190 200 207 204 214 227 228 221 227 209 212 221 230 231 233 189 197 206 190 193 194 197
340 334 332 331 329 322 302 46 52 327 298 262 249 254 253 324 209 178 182 175 171 184 188 184 216 212 216 209 223 231 229 227 228 161 233 233 233 231 213 205 208 197 196 203 193
338 334 331 331 323 315 29 51 343 325 263 279 225 234 219 213 229 175 192 197 188 189 195 199 203 213 207 210 212 222 226 229 231 201 230 256 251 233 211 211 211 209 201 202 198
335 332 332 329 296 337 43 342 335 317 273 207 206 227 193 194 220 206 199 195 197 201 198 222 198 199 206 216 208 219 216 237 241 222 241 197 253 223 220 205 206 208 201 201 199
334 333 329 330 321 342 329 322 317 233 271 104 136 130 156 201 121 188 187 207 206 203 201 199 213 194 211 212 211 231 220 219 235 242 250 248 248 255 195 216 208 210 204 202 200
332 332 329 203 261 345 327 318 240 227 239 135 130 185 175 212 216 149 183 215 227 218 208 224 207 215 219 213 221 211 222 222 230 234 239 235 240 242 232 213 221 209 207 201 203
330 326 318 302 332 329 318 277 231 243 59 57 3 335 250 194 212 185 195 197 202 204 214 211 216 218 208 213 205 201 195 195 208 217 235 226 235 235 252 233 215 218 204 201 200
326 312 109 302 317 321 300 244 251 346 21 346 320 295 244 201 225 203 194 206 215 209 188 204 212 202 192 207 196 196 204 211 211 219 226 215 233 234 233 239 238 235 216 197 200
312 340 303 346 327 302 280 250 280 16 347 323 308 279 191 201 295 215 216 213 206 215 229 196 225 183 200 197 199 191 214 217 253 184 271 225 215 241 254 219 223 230 222 206 196
321 318 10 346 326 278 263 315 349 344 332 317 299 353 317 350 270 220 188 26 236 212 247 261 220 184 190 195 209 210 203 213 227 243 241 224 232 226 210 215 219 214 212 205 198
301 302 26 339 281 280 341 344 325 325 334 311 317 310 301 299 299 272 110 44 341 170 247 254 242 182 182 201 194 199 200 214 226 232 217 235 232 209 229 210 215 211 210 202 197
326 319 14 323 296 342 353 331 315 320 343 306 282 277 301 307 286 265 131 37 346 275 219 219 243 204 203 197 211 204 205 202 216 209 240 282 262 113 227 215 215 214 208 211 206
338 311 10 324 6 347 341 318 313 339 360 351 311 346 301 289 274 300 48 48 358 10 10 159 223 212 185 200 203 218 201 209 218 231 209 221 209 122 117 148 218 232 226 216 219
316 318 2 293 21 335 343 328 331 353 338 344 333 319 318 256 243 277 321 35 349 9 324 258 249 225 215 213 198 213 209 214 213 223 224 209 235 161 205 143 147 168 199 218 211
348 17 357 317 330 331 313 293 312 348 342 316 89 4 330 284 272 255 321 304 245 6 333 317 223 241 252 315 292 243 214 209 218 222 227 228 213 239 252 229 237 314 318 352 213
313 339 316 301 295 292 310 312 327 336 333 326 6 325 312 315 312 333 328 315 323 330 330 335 197 259 247 216 226 242 233 244 236 224 233 240 247 221 216 302 270 269 291 286 275
267 288 271 274 291 298 313 320 311 313 306 274 326 315 310 331 277 293 295 284 281 292 306 289 288 238 229 210 240 242 224 221 228 233 240 237 244 249 258 247 258 276 287 294 286